Wahpeton, MN

4:54 PM CST on November 15, 2019 (GMT -0600)
Stern

Weather History for KBWP - September, 2019

Change the Weather History Date:

Sunday, September 8, 2019

  Actual Average (KFFM) Record (KFFM)
Temperature  
Mean Temperature 56 °F -  
Max Temperature 62 °F 73 °F 96 °F (1959)
Min Temperature 50 °F 51 °F 38 °F (1965)
Degree Days  
Heating Degree Days 9    
Growing Degree Days 6 (Base 50)    
Moisture  
Dew Point 49 °F    
Average Humidity 78    
Maximum Humidity 94    
Minimum Humidity 59    
Precipitation  
Precipitation 0.00 in - - ()
Sea Level Pressure  
Sea Level Pressure 30.11 in    
Wind  
Wind Speed 6 mph ()    
Max Wind Speed 10 mph    
Max Gust Speed 16 mph    
Visibility 10.0 miles    
Events      
Averages and records for this station are not official NWS values.
T = Trace of Precipitation, MM = Missing Value Source: Averaged Metar Reports

Daily Weather History Graph

Daily Weather History Graph

Search for Another Location

Airport or City:

Astronomy

Sep. 08, 2019 Rise Set
Actual Time 6:55 AM CDT 7:51 PM CDT
Civil Twilight 6:24 AM CDT 8:22 PM CDT
Nautical Twilight 5:48 AM CDT 8:58 PM CDT
Astronomical Twilight 5:09 AM CDT 9:37 PM CDT
Moon 5:18 PM CDT (9/8) 1:19 AM CDT (9/8)
Length of Visible Light 13h 57m
Length of Day
12h 56m
Waxing Gibbous, 75% of the Moon is Illuminated
Sep 8
Waxing Gibbous
Sep 13
Full
Sep 21
Last Quarter
Sep 28
New
Oct 5
First Quarter

Hourly Weather History & Observations

Time (CDT) Temp. Dew Point Humidity Pressure Visibility Wind Dir Wind Speed Gust Speed Precip Events Conditions
12:15 AM 51.8 °F 48.2 °F 88% 30.13 in 10.0 mi ENE 6.9 mph - N/A   Unknown
12:35 AM 51.8 °F 48.2 °F 88% 30.13 in 10.0 mi ENE 5.8 mph - N/A   Unknown
12:55 AM 51.8 °F 48.2 °F 88% 30.13 in 10.0 mi ENE 6.9 mph - N/A   Unknown
1:15 AM 50.0 °F 48.2 °F 94% 30.12 in 10.0 mi ENE 5.8 mph - N/A   Unknown
1:35 AM 50.0 °F 48.2 °F 94% 30.12 in 10.0 mi ENE 5.8 mph - N/A   Unknown
1:55 AM 50.0 °F 48.2 °F 94% 30.12 in 10.0 mi ENE 5.8 mph - N/A   Unknown
2:15 AM 50.0 °F 48.2 °F 94% 30.12 in 10.0 mi ENE 5.8 mph - N/A   Unknown
2:35 AM 50.0 °F 48.2 °F 94% 30.12 in 10.0 mi ENE 4.6 mph - N/A   Unknown
2:55 AM 50.0 °F 48.2 °F 94% 30.12 in 10.0 mi ENE 5.8 mph - N/A   Unknown
3:15 AM 50.0 °F 48.2 °F 94% 30.12 in 10.0 mi East 5.8 mph - N/A   Unknown
3:35 AM 50.0 °F 46.4 °F 87% 30.11 in 10.0 mi East 5.8 mph - N/A   Unknown
3:55 AM 51.8 °F 48.2 °F 88% 30.12 in 10.0 mi East 4.6 mph - N/A   Unknown
4:15 AM 51.8 °F 48.2 °F 88% 30.12 in 10.0 mi East 4.6 mph - N/A   Unknown
4:35 AM 51.8 °F 48.2 °F 88% 30.12 in 10.0 mi East 3.5 mph - N/A   Unknown
4:55 AM 51.8 °F 48.2 °F 88% 30.13 in 10.0 mi East 4.6 mph - N/A   Unknown
5:15 AM 51.8 °F 48.2 °F 88% 30.12 in 10.0 mi East 4.6 mph - N/A   Unknown
5:35 AM 51.8 °F 48.2 °F 88% 30.12 in 10.0 mi East 4.6 mph - N/A   Unknown
5:55 AM 51.8 °F 48.2 °F 88% 30.12 in 10.0 mi NE 4.6 mph - N/A   Unknown
6:15 AM 51.8 °F 48.2 °F 88% 30.13 in 10.0 mi NNE 5.8 mph - N/A   Unknown
6:35 AM 51.8 °F 48.2 °F 88% 30.13 in 10.0 mi NE 6.9 mph - N/A   Unknown
6:55 AM 51.8 °F 48.2 °F 88% 30.13 in 10.0 mi NE 8.1 mph - N/A   Overcast
7:15 AM 51.8 °F 48.2 °F 88% 30.13 in 10.0 mi NE 6.9 mph - N/A   Unknown
7:55 AM 51.8 °F 48.2 °F 88% 30.13 in 10.0 mi East 8.1 mph - N/A   Unknown
8:15 AM 51.8 °F 48.2 °F 88% 30.13 in 10.0 mi East 6.9 mph - N/A   Unknown
8:35 AM 51.8 °F 48.2 °F 88% 30.14 in 10.0 mi East 6.9 mph - N/A   Unknown
8:55 AM 51.8 °F 48.2 °F 88% 30.13 in 10.0 mi East 9.2 mph - N/A   Unknown
9:15 AM 53.6 °F 48.2 °F 82% 30.13 in 10.0 mi East 9.2 mph - N/A   Unknown
9:35 AM 53.6 °F 46.4 °F 77% 30.14 in 10.0 mi ESE 9.2 mph - N/A   Unknown
9:55 AM 53.6 °F 46.4 °F 77% 30.13 in 10.0 mi East 10.4 mph - N/A   Unknown
10:15 AM 55.4 °F 46.4 °F 72% 30.13 in 10.0 mi ESE 8.1 mph - N/A   Unknown
10:35 AM 55.4 °F 46.4 °F 72% 30.13 in 10.0 mi East 8.1 mph - N/A   Unknown
10:55 AM 55.4 °F 48.2 °F 77% 30.13 in 10.0 mi ESE 8.1 mph - N/A   Unknown
11:15 AM 55.4 °F 48.2 °F 77% 30.13 in 10.0 mi East 9.2 mph - N/A   Unknown
11:35 AM 59.0 °F 50.0 °F 72% 30.13 in 10.0 mi East 10.4 mph - N/A   Unknown
11:55 AM 59.0 °F 48.2 °F 67% 30.13 in 10.0 mi East 8.1 mph - N/A   Unknown
12:15 PM 59.0 °F 50.0 °F 72% 30.12 in 10.0 mi East 9.2 mph - N/A   Unknown
12:35 PM 60.8 °F 50.0 °F 68% 30.12 in 10.0 mi East 8.1 mph - N/A   Unknown
12:55 PM 60.8 °F 50.0 °F 68% 30.11 in 10.0 mi ESE 8.1 mph - N/A   Unknown
1:15 PM 60.8 °F 48.2 °F 63% 30.11 in 10.0 mi SE 8.1 mph - N/A   Unknown
1:35 PM 60.8 °F 48.2 °F 63% 30.11 in 10.0 mi East 6.9 mph - N/A   Unknown
1:55 PM 62.6 °F 48.2 °F 59% 30.11 in 10.0 mi East 6.9 mph - N/A   Unknown
2:15 PM 62.6 °F 50.0 °F 63% 30.10 in 10.0 mi SE 5.8 mph - N/A   Unknown
2:35 PM 62.6 °F 50.0 °F 63% 30.10 in 10.0 mi East 8.1 mph - N/A   Unknown
2:55 PM 62.6 °F 50.0 °F 63% 30.10 in 10.0 mi East 8.1 mph - N/A   Unknown
3:15 PM 62.6 °F 50.0 °F 63% 30.09 in 10.0 mi East 9.2 mph - N/A   Unknown
3:35 PM 62.6 °F 50.0 °F 63% 30.10 in 10.0 mi ESE 8.1 mph - N/A   Unknown
3:55 PM 62.6 °F 50.0 °F 63% 30.10 in 10.0 mi ESE 9.2 mph - N/A   Unknown
4:15 PM 60.8 °F 50.0 °F 68% 30.10 in 10.0 mi ESE 8.1 mph - N/A   Unknown
4:35 PM 60.8 °F 50.0 °F 68% 30.10 in 10.0 mi ESE 9.2 mph - N/A   Unknown
4:55 PM 60.8 °F 50.0 °F 68% 30.10 in 10.0 mi East 8.1 mph - N/A   Unknown
5:15 PM 60.8 °F 50.0 °F 68% 30.09 in 10.0 mi East 8.1 mph - N/A   Unknown
5:35 PM 60.8 °F 50.0 °F 68% 30.09 in 10.0 mi ESE 5.8 mph - N/A   Unknown
5:55 PM 60.8 °F 50.0 °F 68% 30.08 in 10.0 mi ESE 8.1 mph - N/A   Unknown
6:15 PM 60.8 °F 50.0 °F 68% 30.08 in 10.0 mi ESE 9.2 mph 16.1 mph N/A   Unknown
6:35 PM 60.8 °F 50.0 °F 68% 30.08 in 10.0 mi ESE 8.1 mph - N/A   Unknown
6:55 PM 59.0 °F 50.0 °F 72% 30.08 in 10.0 mi ESE 8.1 mph - N/A   Unknown
7:15 PM 59.0 °F 50.0 °F 72% 30.08 in 10.0 mi East 8.1 mph - N/A   Unknown
7:35 PM 59.0 °F 50.0 °F 72% 30.08 in 10.0 mi East 9.2 mph - N/A   Unknown
7:55 PM 59.0 °F 50.0 °F 72% 30.08 in 10.0 mi ESE 8.1 mph - N/A   Unknown
8:15 PM 59.0 °F 50.0 °F 72% 30.08 in 10.0 mi ESE 8.1 mph - N/A   Unknown
8:35 PM 57.2 °F 50.0 °F 77% 30.08 in 10.0 mi ESE 6.9 mph - N/A   Unknown
8:55 PM 57.2 °F 50.0 °F 77% 30.08 in 10.0 mi ESE 6.9 mph - N/A   Unknown
9:15 PM 57.2 °F 50.0 °F 77% 30.08 in 10.0 mi ESE 8.1 mph - N/A   Unknown
9:35 PM 55.4 °F 50.0 °F 82% 30.08 in 10.0 mi ESE 5.8 mph - N/A   Unknown
9:55 PM 55.4 °F 50.0 °F 82% 30.08 in 10.0 mi East 4.6 mph - N/A   Unknown
10:15 PM 55.4 °F 50.0 °F 82% 30.09 in 10.0 mi ESE 4.6 mph - N/A   Unknown
10:35 PM 55.4 °F 50.0 °F 82% 30.10 in 10.0 mi ESE 5.8 mph - N/A   Unknown
10:55 PM 55.4 °F 50.0 °F 82% 30.10 in 10.0 mi ESE 5.8 mph - N/A   Unknown
11:15 PM 55.4 °F 50.0 °F 82% 30.09 in 10.0 mi East 5.8 mph - N/A   Unknown
11:35 PM 55.4 °F 51.8 °F 88% 30.09 in 10.0 mi East 6.9 mph - N/A   Unknown
11:55 PM 55.4 °F 50.0 °F 82% 30.09 in 10.0 mi ESE 6.9 mph - N/A   Unknown